User: anonymous   Login
Location: *
(48.4333°N, 5.0333°W)
Time: 17:19:42
(UTC+00:00)
Language:

SJ-6B - Orbit

View from above orbital plane
View from above orbital plane
View from above satellite
View from above satellite

Ground track
Ground track

The orbit data is extracted from the following two-line orbital elements,

1 28415U 04035C   20196.39586375  .00000511  00000-0  37697-4 0  9999
2 28415  97.6115 237.6758 0050006 260.2701  99.2876 15.06876351867697
Epoch (UTC): 14 July 2020 09:30:02
Eccentricity: 0.0050006
inclination: 97.6115°
perigee height: 511 km
apogee height: 580 km
right ascension of ascending node: 237.6758°
argument of perigee: 260.2701°
revolutions per day: 15.06876351
mean anomaly at epoch: 99.2876°
orbit number at epoch: 86769

The dashed part of the orbit path shows where the satellite is in the earth's shadow,  

DLR